Location: Gajan
(43.0218°N, 1.1244°E)
Time: 10:58:35
(UTC+00:00)

Tiangong - Visible Passes

Search period start: 27 September 2021 00:00
Search period end: 07 October 2021 00:00
Orbit: 382 x 385 km, 41.5° (Epoch: 26 September)

Date Brightness Start Highest point End Pass type
(mag) Time Alt. Az. Time Alt. Az. Time Alt. Az.
27 Sep 2.8 04:35:19 16° SSW 04:37:07 25° SSE 04:39:48 10° E visible
28 Sep 3.8 03:38:23 15° SE 03:38:23 15° SE 03:39:29 10° ESE visible
28 Sep 1.7 05:10:41 10° WSW 05:13:46 50° SSE 05:16:51 10° E visible
29 Sep 2.0 04:13:37 36° S 04:13:54 37° SSE 04:16:52 10° E visible
30 Sep 4.4 03:16:35 11° E 03:16:35 11° E 03:16:46 10° E visible
30 Sep 1.3 04:48:47 22° WSW 04:50:38 61° S 04:53:46 10° E visible
01 Oct 2.6 03:51:43 34° ESE 03:51:43 34° ESE 03:53:47 10° E visible
02 Oct 1.1 04:26:51 50° WSW 04:27:28 67° S 04:30:37 10° E visible
03 Oct 3.9 03:29:47 17° E 03:29:47 17° E 03:30:39 10° E visible
03 Oct 1.4 05:01:59 17° W 05:04:13 54° S 05:07:19 10° ESE visible
04 Oct 1.8 04:04:56 47° SE 04:04:56 47° SE 04:07:24 10° ESE visible
05 Oct 1.7 04:40:08 33° SW 04:40:58 41° SSW 04:43:57 10° SE visible
06 Oct 3.7 03:43:11 18° ESE 03:43:11 18° ESE 03:44:07 10° ESE visible
06 Oct 2.9 05:15:24 11° WSW 05:17:29 19° SSW 05:19:49 10° SSE visible
